Wind_Speed
34 35 37 38 38 38 36 40 44 45 45 43 45 48 51 53 55 56 57 59 61 64 66 69 69 70 69 69 70 70 68 64
34 35 38 39 36 37 39 43 47 45 45 49 52 54 56 58 60 62 64 67 69 71 69 68 70 72 74 74 74 75 74 78
36 38 41 41 42 44 46 46 45 47 50 55 56 59 60 62 65 68 70 71 71 70 70 72 76 77 76 83 85 87 86 88
39 43 46 47 49 44 44 48 52 54 55 57 59 61 66 68 70 71 71 71 72 74 76 81 83 85 87 90 92 95 96 96
44 47 47 43 44 47 50 53 54 55 57 60 63 65 68 69 69 72 75 76 79 81 85 87 87 89 92 96 96 99 102 101
44 40 43 48 49 52 52 53 56 57 60 63 66 68 71 74 77 78 83 86 88 91 93 96 99 100 104 106 109 110 110 109
42 48 49 51 51 53 56 59 62 66 67 72 75 77 79 84 87 91 94 97 98 100 105 107 111 114 117 116 117 112 111 108
50 52 52 53 56 59 63 66 70 69 76 80 82 86 89 92 95 99 103 104 108 110 113 119 121 121 123 124 117 111 107 106
51 51 54 57 61 62 64 67 69 74 79 84 87 91 94 97 100 106 109 113 117 121 123 125 126 129 126 119 107 103 100 96
54 57 60 61 61 63 69 73 76 81 85 90 94 99 102 107 111 113 117 122 125 126 130 131 130 123 113 105 100 96 94 90
57 59 61 60 63 68 74 78 82 87 93 98 102 105 111 113 115 119 124 127 129 132 132 130 123 110 104 99 94 93 94 92
59 63 62 65 72 78 83 86 91 96 100 104 108 112 118 121 126 128 130 132 132 131 126 115 108 103 99 97 94 90 86 82
65 66 70 75 81 86 90 94 98 104 107 111 115 119 125 129 130 133 133 131 124 116 109 105 102 100 99 94 88 82 77 75
69 73 77 82 87 92 95 100 105 109 114 118 123 128 131 133 133 132 128 119 111 108 104 102 100 96 90 84 78 75 72 69
74 79 84 88 93 97 102 108 113 118 123 126 130 132 135 135 127 119 111 107 106 103 100 95 91 86 81 78 73 68 64 60
81 85 88 95 98 103 109 114 118 124 129 132 130 130 125 118 110 105 104 104 102 97 89 84 80 77 74 70 65 61 59 57
85 91 97 100 103 108 116 120 128 136 136 128 124 116 110 105 105 104 102 99 94 87 81 75 71 67 66 63 62 58 56 54
93 97 101 105 111 116 122 132 134 130 122 117 110 105 105 104 103 99 94 88 83 79 74 70 66 63 61 58 57 55 51 46
97 101 107 114 119 127 130 134 128 119 114 107 105 105 103 100 96 90 84 79 75 72 68 65 62 58 54 52 52 50 47 43
Wind_Direction
301 305 305 304 302 302 301 298 301 300 300 301 301 301 299 299 297 297 298 297 296 296 297 297 296 296 297 294 291 289 286 287
305 309 307 306 304 299 293 300 302 301 300 301 301 299 299 298 296 297 298 298 298 298 297 294 296 296 295 294 291 290 287 286
307 308 303 300 301 301 300 301 303 303 301 302 302 302 301 300 300 300 300 300 299 296 295 295 297 297 294 294 293 293 292 288
304 301 300 300 301 303 305 305 305 304 304 303 301 301 301 301 301 301 301 300 298 297 296 297 296 295 294 294 293 293 291 289
301 301 303 303 303 303 301 301 302 302 301 301 301 303 303 303 301 301 301 300 300 300 301 302 302 301 299 295 293 293 290 287
304 305 305 304 303 301 300 301 300 302 304 306 305 303 301 299 298 298 300 302 301 303 303 302 302 301 300 301 297 292 290 288
305 305 305 304 303 302 302 301 301 301 302 305 304 303 302 302 301 303 306 306 305 304 303 302 300 300 299 300 297 292 288 285
304 304 303 303 304 303 302 303 302 299 302 305 306 307 306 306 306 308 306 306 302 302 302 302 299 299 299 298 294 289 285 283
303 301 301 301 302 303 302 303 304 305 307 306 304 306 307 308 306 307 305 304 302 302 300 300 300 300 298 295 290 286 284 281
299 299 302 302 302 302 306 308 308 308 308 309 309 309 309 309 308 305 303 303 303 301 303 302 301 299 296 294 291 288 285 282
296 299 305 304 306 308 309 308 307 307 308 309 310 309 309 306 304 302 303 303 304 304 304 303 302 300 297 295 292 289 287 284
302 305 307 307 309 310 310 308 308 309 308 307 308 307 307 305 304 304 304 305 305 305 303 302 301 299 296 294 293 291 288 285
307 306 308 311 311 309 308 308 309 309 308 306 306 305 305 304 305 304 304 304 304 303 301 301 299 297 297 297 295 293 291 288
310 311 311 311 310 308 308 308 309 309 307 306 305 305 305 304 304 304 303 304 304 304 303 301 299 299 298 297 295 294 291 287
311 310 311 310 309 309 308 309 310 310 309 306 305 306 306 305 304 305 305 305 304 302 301 301 300 300 299 298 297 293 289 287
310 310 311 313 312 310 310 310 308 308 307 307 307 307 307 307 307 306 306 305 303 302 302 301 300 300 299 298 295 292 289 286
310 312 313 310 309 307 307 307 307 308 308 307 309 308 308 308 308 307 307 305 304 304 304 302 302 300 297 295 293 290 287 286
311 311 308 306 306 307 308 308 308 309 309 309 309 309 309 309 308 307 307 306 305 305 304 304 302 301 298 296 293 291 290 290
309 307 308 309 309 309 308 309 309 309 310 310 310 310 310 310 309 309 308 307 306 305 306 305 303 300 297 294 292 293 295 296
Height
10675 10673 10671 10668 10664 10660 10655 10650 10644 10639 10633 10628 10623 10619 10614 10609 10604 10599 10595 10589 10584 10579 10574 10568 10563 10558 10552 10546 10543 10539 10536 10530
10667 10664 10661 10657 10654 10650 10645 10641 10635 10629 10623 10618 10613 10607 10602 10597 10591 10585 10580 10574 10569 10563 10556 10550 10543 10539 10533 10525 10521 10518 10512 10506
10660 10657 10652 10647 10642 10639 10635 10630 10624 10618 10613 10608 10601 10595 10589 10583 10576 10568 10563 10557 10551 10546 10541 10535 10528 10522 10514 10506 10499 10494 10491 10481
10653 10648 10643 10638 10633 10628 10623 10617 10612 10607 10601 10594 10588 10582 10575 10568 10560 10554 10545 10539 10533 10526 10519 10512 10505 10497 10491 10483 10474 10466 10462 10456
10645 10640 10634 10629 10623 10618 10612 10606 10600 10593 10587 10580 10574 10567 10558 10550 10543 10535 10526 10518 10510 10501 10494 10487 10479 10471 10463 10455 10446 10436 10423 10423
10636 10631 10625 10620 10613 10606 10599 10592 10585 10579 10572 10565 10558 10550 10542 10534 10526 10517 10506 10495 10486 10476 10465 10456 10446 10436 10428 10419 10411 10398 10387 10379
10626 10620 10614 10607 10600 10593 10585 10578 10572 10565 10557 10550 10541 10532 10523 10514 10504 10493 10481 10468 10458 10448 10436 10424 10415 10405 10394 10384 10373 10363 10352 10343
10617 10610 10603 10596 10589 10582 10574 10566 10559 10550 10541 10532 10522 10512 10501 10489 10477 10465 10454 10442 10429 10417 10405 10393 10380 10369 10356 10345 10332 10323 10314 10303
10607 10600 10594 10587 10579 10570 10561 10552 10543 10533 10522 10510 10499 10488 10475 10461 10448 10435 10423 10411 10398 10385 10372 10356 10342 10326 10313 10301 10290 10280 10274 10271
10594 10587 10580 10573 10565 10555 10544 10533 10522 10511 10499 10488 10474 10461 10447 10434 10420 10405 10391 10377 10361 10346 10329 10312 10298 10281 10268 10257 10249 10240 10232 10230
10584 10576 10569 10560 10551 10541 10529 10517 10505 10493 10480 10466 10453 10439 10425 10410 10394 10378 10360 10342 10323 10305 10286 10268 10253 10243 10230 10221 10213 10204 10196 10192
10569 10560 10550 10540 10530 10519 10509 10498 10486 10473 10458 10443 10428 10412 10396 10379 10361 10343 10324 10304 10285 10267 10251 10234 10220 10209 10197 10188 10178 10171 10163 10155
10554 10545 10536 10525 10513 10501 10488 10476 10463 10448 10433 10417 10400 10383 10365 10345 10326 10307 10289 10269 10252 10237 10220 10205 10190 10176 10164 10156 10147 10138 10130 10124
10539 10528 10518 10506 10494 10480 10466 10453 10438 10423 10406 10388 10369 10350 10332 10310 10289 10269 10250 10233 10215 10201 10187 10171 10158 10146 10136 10127 10118 10110 10103 10097
10524 10512 10500 10487 10473 10457 10442 10427 10411 10395 10377 10357 10336 10314 10294 10273 10252 10235 10218 10201 10188 10174 10159 10145 10130 10119 10109 10098 10091 10085 10079 10074
10502 10490 10478 10464 10448 10430 10415 10399 10382 10363 10345 10324 10302 10279 10256 10238 10221 10205 10189 10173 10159 10145 10132 10120 10107 10097 10087 10077 10069 10064 10057 10053
10484 10471 10456 10440 10426 10408 10388 10369 10349 10327 10308 10287 10267 10245 10227 10209 10194 10177 10162 10145 10129 10116 10106 10096 10086 10076 10066 10058 10049 10043 10038 10034
10463 10448 10433 10416 10399 10381 10359 10338 10315 10293 10273 10254 10235 10217 10201 10183 10166 10150 10134 10119 10106 10093 10082 10073 10064 10056 10045 10037 10029 10022 10018 10016
10438 10425 10409 10389 10370 10349 10328 10305 10283 10262 10241 10224 10207 10190 10172 10155 10138 10124 10109 10095 10083 10072 10063 10053 10044 10035 10027 10019 10010 10005 10002 10000